Kuchera_Ratio
3.9 1.2 3.6 5.4 5.8 3.6 9.0 6.8 12.5 8.7 8.5 5.2 3.6 3.0 0.9 0.0 0.0 0.0 0.0 0.0 0.0 0.0 0.0 0.0 0.0 0.0 0.0 0.0 0.0 0.0 0.0 0.0 0.0 0.0 0.0 0.0 0.0 0.0 0.0 0.0 0.0 0.0 0.0 0.0
8.5 3.7 3.5 8.0 5.0 2.8 3.2 4.0 5.5 4.5 6.7 0.0 0.0 0.0 0.0 0.0 0.0 0.0 0.0 0.0 0.0 0.0 0.0 0.0 0.0 0.0 0.0 0.0 0.0 0.0 0.0 0.0 0.0 0.0 0.0 0.0 0.0 0.0 0.0 0.0 0.0 0.0 0.0 0.0
12.6 5.9 6.4 12.5 6.7 5.8 3.7 1.9 3.0 8.9 3.1 0.0 1.4 1.1 1.0 0.1 0.0 0.0 0.0 0.0 0.0 0.0 0.0 0.0 0.0 0.0 0.0 0.0 0.0 0.0 0.0 0.0 0.0 0.0 0.0 0.0 0.0 0.0 0.0 0.0 0.0 0.0 0.0 0.0
12.3 8.2 16.1 7.7 0.0 0.0 1.8 1.1 0.0 0.2 0.0 0.0 0.2 0.0 0.0 0.0 0.0 0.0 0.0 0.0 0.0 0.0 0.0 0.0 0.0 0.0 0.0 0.0 0.0 0.0 0.0 0.0 0.0 0.0 0.0 0.0 0.0 0.0 0.0 0.0 0.0 0.0 0.0 0.0
12.3 14.0 9.7 7.3 0.0 0.0 5.5 6.1 0.4 1.6 0.2 0.0 0.0 0.0 0.0 0.0 0.0 0.0 0.0 0.0 0.0 0.0 0.0 0.0 0.0 0.0 0.0 0.0 0.0 0.0 0.0 0.0 0.0 0.0 0.0 0.0 0.0 0.0 0.0 0.0 0.0 0.0 0.0 0.0
10.1 12.7 15.4 6.7 0.0 0.0 0.0 8.4 0.0 0.0 0.6 0.3 0.0 6.1 4.1 0.0 0.0 0.0 0.0 0.0 0.0 0.0 0.0 0.0 0.0 0.0 0.0 0.0 0.0 0.0 0.0 0.0 0.0 0.0 0.0 0.0 0.0 0.0 0.0 0.0 0.0 0.0 0.0 0.0
11.5 12.3 8.9 0.2 0.0 0.0 12.7 6.5 0.0 0.0 0.0 0.0 2.4 2.6 1.5 0.0 0.0 0.0 0.0 0.0 0.0 0.0 0.0 0.0 0.0 0.0 0.0 0.0 0.0 0.0 0.0 0.0 0.0 0.0 0.0 0.0 0.0 0.0 0.0 0.0 0.0 0.0 0.0 0.0
9.9 12.4 12.7 0.0 0.0 5.9 0.0 0.0 0.0 0.0 0.0 0.0 0.2 0.0 0.0 0.0 0.0 0.0 0.3 0.0 0.0 0.0 0.0 0.0 0.0 0.0 0.0 0.0 0.0 0.0 0.0 0.0 0.0 0.0 0.0 0.0 0.0 0.0 0.0 0.0 0.0 0.0 0.0 0.0
6.5 5.2 0.0 0.0 0.0 0.0 0.0 0.0 0.0 0.0 0.0 0.0 0.0 0.0 0.0 0.0 0.0 0.0 0.0 0.0 0.0 0.0 0.0 0.0 0.0 0.0 0.0 0.0 0.0 0.0 0.0 0.0 0.0 0.0 0.0 0.0 0.0 0.0 0.0 0.0 0.0 0.0 0.0 0.0
2.1 0.8 0.0 0.0 0.0 0.0 0.0 0.0 0.0 0.0 0.0 0.0 0.0 0.0 0.0 0.0 0.0 0.0 0.0 0.0 0.0 0.0 0.0 0.0 0.0 0.0 0.0 0.0 0.0 0.0 0.0 0.0 0.0 0.0 0.0 0.0 0.0 0.0 0.0 0.0 0.0 0.3 0.1 0.0
2.9 2.3 0.0 0.0 0.0 0.0 0.0 0.0 0.0 0.0 0.0 0.0 0.0 0.0 0.0 0.0 0.0 0.0 0.0 0.0 0.0 0.0 0.0 0.5 0.8 1.3 1.0 0.0 0.0 0.0 0.0 1.2 1.7 1.8 1.9 1.7 1.5 0.0 0.0 0.0 0.0 0.0 0.0 0.0
0.0 0.0 0.0 0.0 0.0 0.0 0.0 0.0 0.0 0.0 0.0 0.0 0.0 0.0 0.0 0.0 0.0 0.0 0.0 0.0 0.0 0.0 0.1 0.6 0.1 0.7 1.2 2.5 2.5 2.4 2.2 2.3 2.7 3.9 4.8 5.4 5.4 4.5 0.0 0.0 0.0 0.0 0.0 0.0
0.0 0.0 0.0 0.0 0.0 0.0 0.0 0.0 0.0 0.0 0.0 0.0 0.0 0.0 0.0 0.0 0.0 0.0 0.0 0.0 0.0 0.0 0.0 0.0 0.0 0.0 1.3 2.6 2.5 2.6 3.5 5.0 6.0 6.4 3.9 5.1 5.2 5.7 6.3 2.9 0.0 0.0 0.0 0.0
0.0 0.0 0.0 0.0 0.0 0.0 0.0 0.0 0.0 0.0 0.0 0.0 0.0 0.0 0.0 0.0 0.0 0.0 0.0 0.0 0.0 0.0 0.0 0.0 0.9 1.4 1.0 1.1 1.6 2.4 3.8 2.9 7.2 8.0 7.9 7.9 8.0 8.1 6.9 7.8 7.5 6.0 0.2 0.0
0.0 0.0 0.0 0.0 0.0 0.0 0.0 0.0 0.0 0.0 0.0 0.0 0.0 0.0 0.0 0.0 0.0 0.3 0.1 1.0 1.5 1.9 2.8 3.4 3.8 3.0 2.8 3.5 4.3 4.8 5.7 6.7 7.5 8.4 9.3 9.4 10.3 10.8 10.9 10.5 9.4 7.9 6.5 4.4
0.0 0.0 0.0 0.0 0.0 0.0 0.0 0.0 0.0 0.0 0.0 0.0 0.0 0.0 0.0 0.0 0.0 1.2 1.9 2.8 4.2 4.8 3.9 4.7 5.2 3.7 4.1 5.2 6.0 6.6 6.9 4.7 5.0 9.0 9.3 10.1 11.1 11.8 12.3 12.7 12.7 12.4 9.8 10.2
0.0 0.0 0.0 0.0 0.0 0.0 0.0 0.0 0.0 0.0 0.0 0.0 0.0 0.0 1.2 2.0 3.2 4.0 3.2 1.9 2.0 1.4 2.6 4.9 5.0 4.3 4.9 5.8 6.8 7.3 8.3 8.6 5.0 9.4 10.5 11.2 11.7 12.1 12.4 12.7 12.9 13.0 12.7 11.1
0.0 0.0 0.0 0.0 0.0 0.0 0.0 0.0 0.0 0.0 0.0 0.0 0.0 1.7 3.4 4.4 4.3 4.6 4.0 4.4 5.6 6.1 5.9 4.7 5.0 5.4 5.9 6.4 7.0 7.8 8.8 9.5 9.8 10.8 11.0 11.3 11.7 11.8 12.2 12.4 12.5 12.9 12.8 12.3
0.0 0.0 0.0 0.0 0.0 0.0 0.0 0.0 0.0 0.0 0.0 0.0 1.6 2.8 3.3 3.2 3.7 4.1 4.9 6.1 7.1 8.0 5.2 5.1 5.1 5.6 6.4 6.7 7.6 8.6 9.6 10.5 11.2 11.9 11.7 10.8 11.4 11.8 12.1 12.3 12.5 12.6 12.9 12.7
0.0 0.0 0.0 0.0 0.0 0.0 0.0 0.0 0.0 0.0 0.0 0.9 2.3 3.2 4.0 4.7 5.2 5.9 6.4 7.5 6.0 6.0 5.3 5.7 6.1 6.4 6.9 7.2 4.8 8.7 9.7 10.9 12.1 12.1 12.3 12.2 12.5 12.6 12.4 12.4 12.7 12.9 13.1 13.0
0.0 0.0 0.0 0.0 0.0 0.0 0.0 0.0 0.0 0.0 0.2 1.3 1.9 3.0 4.3 5.1 5.9 6.8 7.3 9.2 5.3 4.9 5.5 6.1 6.7 6.9 7.6 7.9 8.6 9.5 10.1 11.5 12.2 12.2 12.5 12.6 12.6 12.7 12.7 12.9 13.1 13.4 13.9 14.4
0.0 0.0 0.0 0.0 0.0 0.0 0.0 0.0 0.0 0.3 1.0 1.2 2.2 3.5 4.9 6.1 7.0 7.6 7.9 8.1 4.3 4.8 6.0 5.8 6.0 6.5 7.3 5.3 9.4 10.2 10.9 11.9 12.3 12.4 12.7 12.9 13.1 13.1 13.2 13.1 13.4 13.9 14.5 14.9
0.0 0.0 0.0 0.0 0.0 0.0 0.0 0.3 0.9 1.0 1.6 1.9 3.0 4.8 6.2 6.7 7.4 8.2 9.0 5.8 5.2 5.9 6.1 5.4 5.8 5.0 3.0 8.8 8.9 9.3 10.3 11.6 12.4 12.3 12.4 12.6 12.7 12.8 13.0 13.2 13.8 14.5 14.9 15.4
0.0 0.0 0.0 0.0 0.0 1.2 0.9 1.1 2.2 2.5 3.1 4.1 4.8 5.5 6.2 7.8 7.6 7.8 6.5 6.5 3.7 4.8 7.6 7.3 7.4 3.4 1.8 8.8 9.2 10.2 11.3 12.2 12.4 12.4 12.4 11.7 12.8 12.8 13.1 13.6 14.3 14.8 15.4 16.0
1.8 0.4 0.7 2.2 2.7 1.8 1.7 2.5 3.0 3.2 3.8 4.8 5.6 6.2 6.7 7.5 8.1 6.6 7.3 7.6 7.0 7.9 8.7 6.8 3.3 2.4 6.3 8.8 9.2 9.6 10.5 11.7 12.3 12.5 12.5 12.4 12.5 12.9 13.4 14.1 14.7 15.4 16.0 16.5
3.8 3.8 3.1 2.0 1.7 1.9 2.5 4.0 3.3 4.1 5.0 5.6 6.0 6.6 6.9 7.4 8.1 8.8 9.0 9.3 9.6 9.7 10.0 10.2 10.7 11.0 11.7 12.2 12.4 12.5 12.5 12.5 12.7 12.7 12.8 12.7 12.9 13.4 14.0 14.6 15.3 16.0 16.7 17.3
5.5 5.4 5.1 5.4 4.9 3.7 3.4 3.4 4.5 4.4 5.4 5.8 5.9 7.2 8.0 8.4 9.1 10.0 10.2 11.0 11.4 11.9 12.1 12.2 12.2 12.4 12.6 12.8 12.9 13.0 12.9 13.0 12.9 13.0 13.2 13.6 14.0 14.6 15.2 15.9 16.6 17.1 17.8 18.2